This demonstration page uses our WeatherBlox Daily Observations layout. Learn more.

Left ArrowRight Arrow

Hourly Observations for July 2, 2017

Temp ( °F °C ) Dew Point ( °F °C ) Humidity (%) Winds ( mph kmh ) Pressure ( in mb ) Visibility ( mi km ) Precip ( " mm )
12:53 am 00:53 Clear 83 28.3 64 17.8 53 53 SSE 13 20 29.87 1012 10 16 0.00 0.00
1:53 am 01:53 Clear 82 27.8 64 17.8 55 55 SE 9 15 29.89 1012 10 16 0.00 0.00
2:53 am 02:53 Clear 80 26.7 64 17.8 58 58 ENE 8 13 29.93 1013 10 16 0.00 0.00
3:17 am 03:17 Mostly Cloudy 76 24.4 59 15 56 56 N 36 57 30.03 1017 7 11 0.00 0.00
3:53 am 03:53 Mostly Cloudy 73 22.8 59 15 62 62 NNE 22 35 30.00 1016 10 16 0.00 0.00
4:53 am 04:53 Clear 73 22.8 58 14.4 59 59 NE 17 28 29.98 1015 10 16 0.00 0.00
5:53 am 05:53 Clear 73 22.8 57 13.9 57 57 ENE 13 20 29.97 1015 10 16 0.00 0.00
6:53 am 06:53 Sunny 72 22.2 58 14.4 61 61 E 10 17 29.98 1015 10 16 0.00 0.00
7:53 am 07:53 Sunny 72 22.2 59 15 64 64 NNE 6 9 30.04 1017 10 16 0.00 0.00
8:53 am 08:53 Sunny 75 23.9 58 14.4 55 55 S 9 15 30.05 1018 10 16 0.00 0.00
9:53 am 09:53 Sunny 80 26.7 56 13.3 44 44 S 9 15 30.04 1017 10 16 0.00 0.00
10:53 am 10:53 Sunny 84 28.9 56 13.3 38 38 SE 12 19 30.00 1016 10 16 0.00 0.00
11:53 am 11:53 Sunny 86 30 59 15 40 40 SSE 13 20 29.99 1016 10 16 0.00 0.00
12:53 pm 12:53 Sunny 90 32.2 62 16.7 39 39 S 14 22 29.96 1015 10 16 0.00 0.00
1:53 pm 13:53 Sunny 92 33.3 62 16.7 37 37 S 12 19 29.94 1014 10 16 0.00 0.00
2:53 pm 14:53 Sunny 95 35 60 15.6 31 31 SSE 10 17 29.91 1013 10 16 0.00 0.00
3:53 pm 15:53 Sunny 97 36.1 58 14.4 27 27 VRB 7 11 29.88 1012 10 16 0.00 0.00
4:53 pm 16:53 Sunny 98 36.7 55 12.8 24 24 SSE 10 17 29.86 1011 10 16 0.00 0.00
5:53 pm 17:53 Sunny 99 37.2 54 12.2 22 22 SE 5 7 29.84 1011 10 16 0.00 0.00
6:53 pm 18:53 Sunny 98 36.7 54 12.2 23 23 S 5 7 29.83 1010 10 16 0.00 0.00
7:53 pm 19:53 Sunny 98 36.7 54 12.2 23 23 SSE 9 15 29.83 1010 10 16 0.00 0.00
8:53 pm 20:53 Sunny 95 35 54 12.2 25 25 SE 10 17 29.82 1010 10 16 0.00 0.00
9:53 pm 21:53 Clear 92 33.3 60 15.6 34 34 SSE 17 28 29.84 1011 10 16 0.00 0.00
10:53 pm 22:53 Clear 89 31.7 57 13.9 34 34 SSE 16 26 29.86 1011 10 16 0.00 0.00
11:53 pm 23:53 Clear 87 30.6 58 14.4 37 37 SE 12 19 29.87 1012 10 16 0.00 0.00

Powered by AerisWeather